SCP
0 0 0 0 0 0 0 0 0 0 0 0 0 0 0 0 0 0 0 0 0 0 0 0 0 0 0 0 0 0 0 0 0 0 0 0 0 0 0 0 0 0 0
0 0 0 0 0 0 0 0 0 0 0 0 0 0 0 0 0 0 0 0 0 0 0 0 0 0 0 0 0 0 0 0 0 0 0 0 0 0 0 0 0 0 0
0 0 0 0 0 0 0 0 0 0 0 0 0 0 0 0 0 0 0 0 0 0 0 0 0 0 0 0 0 0 0 0 0 0 0 0 0 0 0 0 0 0 0
0 0 0 0 0 0 0 0 0 0 0 0 0 0 0 0 0 0 0 0 0 0 0 0 0 0 0 0 0 0 0 0 0 0 0 0 0 0 0 0 0 0 0
0 0 0 0 0 0 0 0 0 0 0 0 0 0 0 0 0 0 0 0 0 0 0 0 0 0 0 0 0 0 0 0 0 0 0 0 0 0 0 0 0 0 0
0 0 0 0 0 0 0 0 0 0 0 0 0 0 0 0 0 0 0 0 0 0 0 0 0 0 0 0 0 0 0 0 0 0 0 0 0 0 0 0 0 0 0
0 0 0 0 0 0 0 0 0 0 0 0 0 0 0 0 0 0 0 0 0 0 0 0 0 0 0 0 0 0 0 0 0 0 0 0 0 0 0 0 0 0 0
0 0 0 0 0 0 0 0 0 0 0 0 0 0 0 0 0 0 0 0 0 0 0 0 0 0 0 0 0 0 0 0 0 0 0 0 0 0 0 0 0 0 0
0 0 0 0 0 1 1 1 0 0 0 0 0 0 0 0 0 0 0 0 0 0 0 0 0 0 0 0 0 0 0 0 0 0 0 0 0 0 0 0 0 0 0
0 0 0 0 1 1 1 1 0 0 0 0 0 0 0 0 0 0 0 0 0 0 0 0 0 0 0 0 0 0 0 0 0 0 0 0 0 0 0 0 0 0 0
0 0 0 0 0 1 1 1 0 0 0 0 0 0 0 0 0 0 0 0 0 0 0 0 0 0 0 0 0 0 0 0 0 0 0 0 0 0 0 0 0 0 0
0 0 0 0 0 0 0 0 0 0 0 0 0 0 0 0 0 0 0 0 0 0 0 0 0 0 0 0 0 0 0 0 0 0 0 0 0 0 0 0 0 0 0
0 0 0 0 0 0 0 0 0 1 1 1 1 0 0 0 0 0 0 0 0 0 0 0 0 0 0 0 0 0 0 0 0 0 0 0 0 0 0 0 0 0 0
0 0 0 0 0 0 0 0 0 1 1 1 1 1 0 0 0 0 0 0 0 0 0 0 0 0 0 0 0 0 0 0 0 0 0 0 0 0 0 0 0 0 0
0 0 0 0 0 0 0 0 0 1 1 1 1 1 0 0 0 0 0 0 0 0 0 0 0 0 0 0 0 0 0 0 0 0 0 0 0 0 0 0 0 0 0
0 0 0 0 0 0 0 1 1 1 0 0 0 0 0 0 0 0 0 0 0 0 1 0 0 0 0 0 0 0 0 0 0 0 0 0 0 0 0 0 0 0 0
0 0 0 0 0 1 1 1 1 1 1 0 0 0 0 0 0 0 0 0 0 0 1 1 1 1 0 0 0 0 0 0 0 0 0 0 0 0 0 0 0 0 0
0 0 0 0 1 1 1 1 1 1 1 1 1 0 0 0 0 0 0 0 0 1 1 1 1 1 0 0 0 0 0 0 0 0 0 0 0 0 0 0 0 0 0
0 1 1 1 1 1 1 1 1 1 1 1 1 1 0 0 0 0 0 1 1 1 1 1 1 1 1 0 0 0 0 0 0 0 0 0 0 0 0 0 0 0 0
0 1 1 1 1 1 1 1 1 1 1 1 1 1 1 1 1 0 1 1 1 1 1 1 1 1 0 0 0 0 0 0 0 0 0 0 0 0 0 0 0 0 0
0 1 1 1 1 1 1 1 0 0 0 0 1 1 1 1 1 1 1 1 1 1 1 1 0 0 0 0 0 0 0 0 0 0 0 0 0 0 0 0 0 0 0
0 1 1 1 1 1 0 0 0 0 0 0 0 1 1 1 1 1 1 1 1 1 1 0 0 0 0 0 0 0 0 0 0 0 0 0 0 0 0 0 0 0 0
0 1 1 1 1 1 0 0 0 0 0 0 0 1 1 1 1 1 1 1 1 1 0 0 0 0 0 0 0 0 0 0 0 0 0 0 0 0 0 0 0 0 0
0 0 1 1 1 1 1 0 0 0 0 0 0 0 0 0 0 0 1 1 1 1 1 1 1 0 0 0 0 0 0 0 0 0 0 0 0 0 0 0 0 0 0
0 0 1 1 1 1 0 0 0 0 0 0 0 0 0 0 0 1 1 1 0 0 0 1 1 0 0 0 0 0 0 0 0 0 0 0 0 0 0 0 0 0 0
0 0 0 1 1 0 0 0 0 0 0 0 0 0 0 0 0 1 0 0 0 0 0 0 0 0 0 0 0 0 0 0 0 0 0 0 0 0 0 0 0 0 0
Wind_Speed
6 6 6 6 6 6 6 6 6 5 4 3 2 2 2 1 1 2 2 2 3 3 3 2 2 2 2 2 2 2 2 1 1 2 1 2 1 0 0 0 0 1 1
6 6 7 7 8 8 7 7 6 6 6 4 3 2 2 1 1 1 1 2 2 3 3 3 2 2 2 2 2 2 2 1 1 2 1 1 2 2 1 0 0 1 0
10 9 9 9 8 9 9 8 7 6 6 5 3 2 2 1 1 0 1 1 2 2 2 3 2 2 2 2 3 3 3 2 1 1 2 2 2 1 1 1 1 1 0
9 9 9 9 10 10 8 7 7 7 6 6 5 5 4 3 3 2 1 1 1 2 3 3 3 2 2 2 2 2 2 3 2 1 0 1 2 2 1 1 1 1 0
9 10 11 11 9 9 8 8 7 6 6 6 6 5 4 3 2 1 1 1 1 2 2 3 3 3 2 3 2 3 3 2 2 2 2 1 1 1 2 1 1 1 1
8 9 8 8 7 7 7 7 7 6 6 6 6 6 5 5 3 3 2 2 1 1 2 3 3 3 3 3 3 3 3 3 2 2 2 2 2 2 2 2 1 1 1
7 8 9 9 8 9 9 9 9 7 6 6 6 6 6 5 5 4 4 3 2 2 2 2 2 3 3 3 3 3 3 3 3 3 3 2 2 2 2 2 1 1 1
7 8 9 9 9 10 9 9 9 7 7 7 6 5 5 4 3 4 3 3 3 3 3 3 3 3 4 4 3 3 3 3 4 4 3 2 2 2 2 3 2 1 1
7 7 7 8 8 9 9 10 9 8 7 7 6 5 5 4 4 3 3 2 2 2 2 3 3 3 3 3 3 3 3 3 3 3 3 3 2 2 2 2 3 3 2
5 6 7 8 7 7 7 7 7 7 6 6 5 5 4 5 4 3 4 3 3 3 2 2 3 3 3 3 4 3 3 3 3 3 3 3 2 2 2 2 2 2 3
6 5 5 5 4 5 5 5 5 4 4 5 4 4 4 4 4 3 4 4 3 3 3 3 3 3 3 3 4 4 4 4 3 3 3 4 3 2 2 2 2 2 2
4 4 4 4 4 5 5 5 5 5 5 5 5 4 3 3 3 4 4 3 3 4 4 3 3 3 3 4 4 4 4 5 5 4 4 4 3 3 2 2 3 2 3
3 3 4 4 4 4 4 4 5 5 5 5 5 4 4 4 4 4 3 3 4 4 4 4 4 4 4 4 4 4 4 5 5 5 5 4 4 4 3 3 3 2 2
4 4 4 3 4 3 3 3 3 3 4 5 5 5 5 5 5 4 3 3 4 5 5 4 5 4 4 4 4 4 4 4 4 4 4 4 5 5 4 3 4 3 3
3 4 3 3 3 3 2 2 2 3 3 4 4 5 4 4 3 3 4 4 4 5 4 4 4 4 4 5 5 4 5 4 4 3 4 4 5 5 4 3 4 4 3
3 3 3 3 3 3 3 2 2 2 3 3 4 3 3 3 3 3 3 3 3 4 4 4 4 4 4 5 6 5 4 4 4 4 3 3 4 4 5 6 6 6 5
3 3 3 3 2 3 3 3 3 2 3 3 3 3 3 3 3 4 3 3 3 3 4 4 4 4 4 5 5 5 4 3 4 4 3 3 3 4 3 4 5 5 6
2 2 2 2 2 2 2 2 2 2 2 2 2 2 3 3 3 3 4 4 3 3 3 4 4 4 5 5 5 5 4 3 4 4 4 4 4 4 4 4 3 3 3
2 2 2 2 2 2 2 2 2 1 1 1 2 2 3 4 4 4 5 4 3 3 3 4 4 4 4 5 6 6 4 3 4 4 4 5 5 5 5 5 4 3 2
1 1 2 2 1 1 2 3 2 1 2 3 3 3 3 3 4 4 4 3 3 3 3 3 3 4 4 5 6 7 4 4 3 3 3 5 5 4 6 5 5 4 3
1 1 2 1 1 1 2 2 2 3 4 3 2 2 3 4 4 3 2 3 3 3 3 3 3 3 4 5 6 6 4 4 4 3 3 2 4 4 5 5 4 5 3
1 2 2 1 1 1 1 2 3 3 2 2 2 2 3 3 2 2 2 2 3 3 3 3 3 2 3 4 5 6 6 5 4 3 3 2 4 4 4 4 4 4 4
1 1 1 1 1 0 2 3 3 2 1 2 2 2 2 2 2 2 2 2 2 3 3 3 3 3 2 2 4 5 6 6 4 3 3 3 4 4 3 3 3 4 3
1 1 2 2 2 2 1 2 2 2 2 2 2 2 2 2 2 2 2 3 3 3 3 3 4 3 2 2 2 2 3 4 3 2 2 3 3 2 1 1 2 2 2
1 1 0 1 3 2 2 2 2 1 1 2 2 2 2 2 2 2 2 3 3 4 5 4 4 4 4 4 5 4 3 3 3 3 1 1 1 1 1 1 1 1 2
1 1 1 2 3 2 2 3 2 1 1 1 2 2 2 1 1 2 1 0 1 2 3 4 4 3 4 3 4 5 4 4 5 4 2 2 2 2 2 2 2 2 2
Wind_Direction
209 189 183 176 169 170 174 179 176 171 156 149 156 164 194 201 207 217 212 197 194 187 180 183 168 168 171 175 157 138 140 143 117 93 36 12 25 22 274 214 254 268 253
190 190 183 176 179 181 184 185 187 179 176 173 162 161 152 170 190 214 213 211 197 185 187 184 180 176 167 160 163 156 155 157 151 140 123 8 346 348 1 50 38 304 313
195 193 188 189 185 189 188 191 194 190 186 169 136 114 92 70 79 154 218 220 199 193 189 189 185 179 173 183 185 176 172 175 180 158 147 157 220 309 336 354 21 23 44
195 190 190 192 194 196 187 185 188 190 185 169 165 166 171 184 200 189 200 219 197 194 195 194 192 186 179 189 198 180 176 164 181 184 169 156 156 172 285 331 359 15 8
195 191 193 194 194 189 183 182 182 186 182 175 175 172 179 183 169 165 195 224 225 209 205 197 194 197 194 193 184 172 179 178 180 175 161 148 134 169 184 252 311 353 317
192 190 190 181 182 181 180 174 175 186 181 177 175 179 184 180 175 191 212 223 223 229 221 202 198 202 199 198 195 186 183 187 184 178 169 166 171 185 184 215 237 265 289
187 185 183 183 183 182 183 178 178 185 181 179 184 189 190 185 192 201 208 211 216 222 225 210 202 203 203 198 190 187 190 189 192 195 195 193 200 173 168 173 199 240 279
185 188 188 188 186 183 178 174 176 180 179 184 191 190 189 189 198 201 198 204 214 224 216 205 210 211 204 197 185 188 197 191 200 206 195 193 203 182 177 174 169 202 269
182 182 181 186 183 179 177 179 175 174 179 184 183 183 184 186 194 199 198 206 215 225 218 207 211 216 209 199 183 192 203 192 199 204 196 196 201 191 193 185 181 180 218
175 182 185 183 175 174 169 168 173 176 175 174 182 184 183 187 188 186 200 207 212 213 208 209 211 217 213 200 195 197 198 190 201 197 192 201 202 194 192 191 193 194 197
176 181 183 174 157 143 145 156 164 160 165 169 171 174 180 180 178 194 209 211 209 209 218 217 206 208 207 201 197 202 192 191 198 201 198 209 197 189 193 185 186 196 191
163 158 149 136 132 140 146 157 159 172 178 173 167 174 173 172 184 201 211 207 213 217 217 212 212 212 203 196 199 208 199 194 196 200 195 207 196 193 193 189 196 200 200
130 125 129 134 138 146 150 159 166 177 178 170 167 171 176 180 197 211 215 206 211 217 216 211 215 215 206 199 203 203 202 201 200 197 196 201 191 198 197 196 203 204 200
131 131 135 142 139 144 147 157 160 167 171 169 174 186 193 196 202 205 208 214 214 215 216 214 217 212 205 201 200 194 201 202 201 195 194 196 194 200 198 201 206 198 193
120 123 128 124 119 121 133 149 157 158 163 166 181 197 199 197 200 209 212 214 215 219 217 213 214 211 205 204 195 198 202 196 200 197 196 196 195 198 199 197 200 193 195
145 131 120 116 133 148 150 145 153 163 161 169 186 193 191 189 192 213 225 222 222 224 216 216 216 219 224 201 193 193 203 196 197 201 203 201 205 210 210 207 200 194 195
151 142 149 157 165 170 160 164 173 159 161 180 190 190 192 200 204 211 211 221 230 229 224 222 218 223 224 203 193 188 194 200 208 210 208 207 201 211 221 213 207 208 207
156 166 173 180 175 158 154 152 138 147 169 189 204 207 204 213 216 213 221 226 230 232 232 227 222 219 226 208 194 184 191 199 208 212 213 211 214 211 204 198 199 209 214
181 192 185 187 175 165 152 129 122 129 175 219 232 235 225 223 218 219 228 233 224 228 231 223 216 217 223 203 193 185 190 201 213 217 216 214 218 216 196 190 198 213 228
124 147 144 138 144 177 158 143 157 188 234 239 242 244 241 239 234 231 234 234 227 230 219 223 220 215 211 192 188 186 188 198 204 210 221 219 215 211 193 195 195 209 223
59 96 111 132 173 166 148 166 197 228 243 249 255 253 246 244 239 234 232 232 227 225 221 215 218 219 212 202 196 191 192 201 203 209 218 222 199 194 192 195 205 211 200
65 95 99 28 345 109 151 210 237 247 246 238 254 266 262 256 249 229 237 228 217 216 215 207 219 227 216 208 205 201 200 197 200 210 216 211 188 183 182 192 206 190 174
25 56 97 62 345 289 187 229 257 258 233 232 245 255 261 263 249 226 229 235 222 221 224 214 222 231 223 215 202 196 197 197 196 198 195 186 174 173 177 183 180 171 175
346 9 50 26 321 313 295 260 262 242 225 232 236 232 229 239 236 229 218 219 226 229 226 220 221 219 214 209 191 182 179 177 181 180 150 138 136 146 175 176 177 178 182
351 9 53 276 284 296 312 305 285 213 221 235 234 235 230 219 228 234 227 224 229 225 224 223 208 198 212 218 199 183 189 188 186 163 149 144 137 154 184 216 205 187 188
343 344 332 311 295 299 311 309 301 239 196 226 243 242 238 221 212 221 253 333 233 254 226 219 203 207 205 187 185 190 189 180 167 153 170 196 196 201 211 217 218 209 216